"Platform","Saginaw Bay ReCON Buoy"
"NDBC ID","45163"
"Latitude (deg)",43.98281
"Longitude (deg)",-83.59471
"Water Depth (m)",14
"Sensor Device","System Power Controller board voltage input"
"Sensor Type","Voltage to underwater hub"
"Sensor Units","voltage"
"Measurement","A sample"
"Time means","Time at sample (UTC time zone)"

"Note:","This data was collected for research purposes."
"Note:","Minimal quality checking has been performed so data may contain known or unknown errors."
"Note:","Data provided by NOAA. Please credit NOAA."
"Note:","For more info see www.glerl.noaa.gov/res/recon"

"Time (UTC)","To U/W Hub"
"YYYY/MM/DD HH:MM","volts"
2020/08/06 14:58, 50.76
2020/08/06 15:18, 50.74
2020/08/06 15:38, 50.62
2020/08/06 15:58, 50.71
2020/08/06 16:18, 50.75
2020/08/06 16:38, 50.70
2020/08/06 16:58, 50.72
2020/08/06 17:18, 50.74
2020/08/06 17:38, 50.70
2020/08/06 17:58, 50.70
2020/08/06 18:18, 50.75
2020/08/06 18:38, 50.77
2020/08/06 18:58, 50.73
2020/08/06 19:18, 50.74
2020/08/06 19:38, 50.68
2020/08/06 19:58, 50.72
2020/08/06 20:18, 50.76
2020/08/06 20:38, 50.74
2020/08/06 20:58, 50.72
2020/08/06 21:18, 50.77
2020/08/06 21:38, 50.71
2020/08/06 21:58, 50.69
2020/08/06 22:18, 50.71
2020/08/06 22:38, 50.70
2020/08/06 22:58, 50.71
2020/08/06 23:18, 50.74
2020/08/06 23:38, 50.72
2020/08/06 23:58, 50.69
2020/08/07 00:18, 50.74
2020/08/07 00:38, 50.61
2020/08/07 00:58, 50.53
2020/08/07 01:18, 50.53
2020/08/07 01:38, 50.54
2020/08/07 01:58, 50.55
2020/08/07 02:18, 50.57
2020/08/07 02:38, 50.50
2020/08/07 02:58, 50.48
2020/08/07 03:18, 50.57
2020/08/07 03:38, 50.59
2020/08/07 03:58, 50.48
2020/08/07 04:18, 50.54
2020/08/07 04:38, 50.50
2020/08/07 04:58, 50.52
2020/08/07 05:18, 50.59
2020/08/07 05:38, 50.52
2020/08/07 05:58, 50.48
2020/08/07 06:18, 50.53
2020/08/07 06:38, 50.54
2020/08/07 06:58, 50.52
2020/08/07 07:18, 50.52
2020/08/07 07:38, 50.54
2020/08/07 07:58, 50.51
2020/08/07 08:18, 50.53
2020/08/07 08:38, 50.46
2020/08/07 08:58, 50.54
2020/08/07 09:18, 50.52
2020/08/07 09:38, 50.51
2020/08/07 09:58, 50.50
2020/08/07 10:18, 50.53
2020/08/07 10:38, 50.58
2020/08/07 10:58, 50.78
2020/08/07 11:18, 50.77
2020/08/07 11:38, 50.74
2020/08/07 11:58, 50.76
2020/08/07 12:18, 50.78
2020/08/07 12:38, 50.74
2020/08/07 12:58, 50.78
2020/08/07 13:18, 50.73
2020/08/07 13:38, 50.75
2020/08/07 13:58, 50.67
2020/08/07 14:18, 50.67
2020/08/07 14:38, 50.67
2020/08/07 14:58, 50.69
2020/08/07 15:18, 50.73
2020/08/07 15:38, 50.69
2020/08/07 15:58, 50.67
2020/08/07 16:18, 50.70
2020/08/07 16:38, 50.67
2020/08/07 16:58, 50.68
2020/08/07 17:18, 50.67
2020/08/07 17:38, 50.67
2020/08/07 17:58, 50.65
2020/08/07 18:18, 50.72
2020/08/07 18:38, 50.71
2020/08/07 18:58, 50.70
2020/08/07 19:18, 50.69
2020/08/07 19:38, 50.69
2020/08/07 19:58, 50.71
2020/08/07 20:18, 50.74
2020/08/07 20:38, 50.70
2020/08/07 20:58, 50.70
2020/08/07 21:18, 50.72
2020/08/07 21:38, 50.67
2020/08/07 21:58, 50.72
2020/08/07 22:18, 50.66
2020/08/07 22:38, 50.66
2020/08/07 22:58, 50.70
2020/08/07 23:18, 50.72
2020/08/07 23:38, 50.71
2020/08/07 23:58, 50.69
2020/08/08 00:18, 50.74
2020/08/08 00:38, 50.51
2020/08/08 00:58, 50.54
2020/08/08 01:18, 50.48
2020/08/08 01:38, 50.52
2020/08/08 01:58, 50.54
2020/08/08 02:18, 50.55
2020/08/08 02:38, 50.48
2020/08/08 02:58, 50.56
2020/08/08 03:18, 50.50
2020/08/08 03:38, 50.55
2020/08/08 03:58, 50.57
2020/08/08 04:18, 50.48
2020/08/08 04:38, 50.50
2020/08/08 04:58, 50.53
2020/08/08 05:18, 50.52
2020/08/08 05:38, 50.54
2020/08/08 05:58, 50.57
2020/08/08 06:18, 50.50
2020/08/08 06:38, 50.47
2020/08/08 06:58, 50.55
2020/08/08 07:18, 50.48
2020/08/08 07:38, 50.50
2020/08/08 07:58, 50.50
2020/08/08 08:18, 50.56
2020/08/08 08:38, 50.48
2020/08/08 08:58, 50.52
2020/08/08 09:18, 50.51
2020/08/08 09:38, 50.45
2020/08/08 09:58, 50.45
2020/08/08 10:18, 50.49
2020/08/08 10:38, 50.54
2020/08/08 10:58, 50.73
2020/08/08 11:18, 50.73
2020/08/08 11:38, 50.70
2020/08/08 11:58, 50.77
2020/08/08 12:18, 50.74
2020/08/08 12:38, 50.69
2020/08/08 12:58, 50.72
2020/08/08 13:18, 50.74
2020/08/08 13:38, 50.69
2020/08/08 13:58, 50.71
2020/08/08 14:18, 50.71
2020/08/08 14:38, 50.69
2020/08/08 14:58, 50.73
2020/08/08 15:18, 50.66
2020/08/08 15:38, 50.69
2020/08/08 15:58, 50.73
2020/08/08 16:18, 50.72
2020/08/08 16:38, 50.70
2020/08/08 16:58, 50.69
2020/08/08 17:18, 50.74
2020/08/08 17:38, 50.68
2020/08/08 17:58, 50.71
2020/08/08 18:18, 50.69
2020/08/08 18:38, 50.66
2020/08/08 18:58, 50.66
2020/08/08 19:18, 50.66
2020/08/08 19:38, 50.66
2020/08/08 19:58, 50.69
2020/08/08 20:18, 50.68
2020/08/08 20:38, 50.61
2020/08/08 20:58, 50.70
2020/08/08 21:18, 50.54
2020/08/08 21:38, 50.73
2020/08/08 21:58, 50.71
2020/08/08 22:18, 50.68
2020/08/08 22:38, 50.72
2020/08/08 22:58, 50.71
2020/08/08 23:18, 50.73
2020/08/08 23:38, 50.75
2020/08/08 23:58, 50.73
2020/08/09 00:18, 50.63
2020/08/09 00:38, 50.51
2020/08/09 00:58, 50.54
2020/08/09 01:18, 50.51
2020/08/09 01:38, 50.53
2020/08/09 01:58, 50.46
2020/08/09 02:18, 50.59
2020/08/09 02:38, 50.55
2020/08/09 02:58, 50.57
2020/08/09 03:18, 50.53
2020/08/09 03:38, 50.54
2020/08/09 03:58, 50.53
2020/08/09 04:18, 50.56
2020/08/09 04:38, 50.56
2020/08/09 04:58, 50.53
2020/08/09 05:18, 50.57
2020/08/09 05:38, 50.44
2020/08/09 05:58, 50.46
2020/08/09 06:18, 50.48
2020/08/09 06:38, 50.50
2020/08/09 06:58, 50.52
2020/08/09 07:18, 50.48
2020/08/09 07:38, 50.46
2020/08/09 07:58, 50.52
2020/08/09 08:18, 50.53
2020/08/09 08:38, 50.48
2020/08/09 08:58, 50.49
2020/08/09 09:18, 50.49
2020/08/09 09:38, 50.50
2020/08/09 09:58, 50.44
2020/08/09 10:18, 50.49
2020/08/09 10:38, 50.48
2020/08/09 10:58, 50.56
2020/08/09 11:18, 50.52
2020/08/09 11:38, 50.53
2020/08/09 11:58, 50.58
2020/08/09 12:18, 50.57
2020/08/09 12:38, 50.78
2020/08/09 12:58, 50.74
2020/08/09 13:18, 50.74
2020/08/09 13:38, 50.73
2020/08/09 13:58, 50.71
2020/08/09 14:18, 50.79
2020/08/09 14:38, 50.72
2020/08/09 14:58, 50.74
2020/08/09 15:18, 50.66
2020/08/09 15:38, 50.68
2020/08/09 15:58, 50.68
2020/08/09 16:18, 50.76
2020/08/09 16:38, 50.63
2020/08/09 16:58, 50.67
2020/08/09 17:18, 50.67
2020/08/09 17:38, 50.68
2020/08/09 17:58, 50.69
2020/08/09 18:18, 50.72
2020/08/09 18:38, 50.65
2020/08/09 18:58, 50.70
2020/08/09 19:18, 50.62
2020/08/09 19:38, 50.68
2020/08/09 19:58, 50.69
2020/08/09 20:18, 50.62
2020/08/09 20:38, 50.54
2020/08/09 20:58, 50.53
2020/08/09 21:18, 50.57
2020/08/09 21:38, 50.56
2020/08/09 21:58, 50.69
2020/08/09 22:18, 50.63
2020/08/09 22:38, 50.60
2020/08/09 22:58, 50.63
2020/08/09 23:18, 50.65
2020/08/09 23:38, 50.76
2020/08/09 23:58, 50.72
2020/08/10 00:18, 50.55
2020/08/10 00:38, 50.53
2020/08/10 00:58, 50.49
2020/08/10 01:18, 50.54
2020/08/10 01:38, 50.51
2020/08/10 01:58, 50.54
2020/08/10 02:18, 50.50
2020/08/10 02:38, 50.54
2020/08/10 02:58, 50.55
2020/08/10 03:18, 50.55
2020/08/10 03:38, 50.50
2020/08/10 03:58, 50.49
2020/08/10 04:18, 50.49
2020/08/10 04:38, 50.48
2020/08/10 04:58, 50.52
2020/08/10 05:18, 50.50
2020/08/10 05:38, 50.53
2020/08/10 05:58, 50.52
2020/08/10 06:18, 50.54
2020/08/10 06:38, 50.53
2020/08/10 06:58, 50.46
2020/08/10 07:18, 50.49
2020/08/10 07:38, 50.51
2020/08/10 07:58, 50.46
2020/08/10 08:18, 50.51
2020/08/10 08:38, 50.48
2020/08/10 08:58, 50.53
2020/08/10 09:18, 50.45
2020/08/10 09:38, 50.41
2020/08/10 09:58, 50.47
2020/08/10 10:18, 50.43
2020/08/10 10:38, 50.47
2020/08/10 10:58, 50.54
2020/08/10 11:18, 50.53
2020/08/10 11:38, 50.73
2020/08/10 11:58, 50.62
2020/08/10 12:18, 50.70
2020/08/10 12:38, 50.74
2020/08/10 12:58, 50.71
2020/08/10 13:18, 50.68
2020/08/10 13:38, 50.72
2020/08/10 13:58, 50.74
2020/08/10 14:18, 50.74
2020/08/10 14:38, 50.68
2020/08/10 14:58, 50.68
2020/08/10 15:18, 50.67
2020/08/10 15:38, 50.66
2020/08/10 15:58, 50.68
2020/08/10 16:18, 50.65
2020/08/10 16:38, 50.60
2020/08/10 16:58, 50.67
2020/08/10 17:18, 50.65
2020/08/10 17:38, 50.63
2020/08/10 17:58, 50.64
2020/08/10 18:18, 50.63
2020/08/10 18:38, 50.65
2020/08/10 18:58, 50.60
2020/08/10 19:18, 50.67
2020/08/10 19:38, 50.68
2020/08/10 19:58, 50.63
2020/08/10 20:18, 50.67
2020/08/10 20:38, 50.64
2020/08/10 20:58, 50.59
2020/08/10 21:18, 50.62
2020/08/10 21:38, 50.61
2020/08/10 21:58, 50.61
2020/08/10 22:18, 50.64
2020/08/10 22:38, 50.64
2020/08/10 22:58, 50.64
2020/08/10 23:18, 50.63
2020/08/10 23:38, 50.52
2020/08/10 23:58, 50.56
2020/08/11 00:18, 50.54
2020/08/11 00:38, 50.55
2020/08/11 00:58, 50.51
2020/08/11 01:18, 50.50
2020/08/11 01:38, 50.51
2020/08/11 01:58, 50.51
2020/08/11 02:18, 50.49
2020/08/11 02:38, 50.53
2020/08/11 02:58, 50.53
2020/08/11 03:18, 50.47
2020/08/11 03:38, 50.54
2020/08/11 03:58, 50.78
2020/08/11 04:18, 50.50
2020/08/11 04:38, 50.48
2020/08/11 04:58, 50.47
2020/08/11 05:18, 50.57
2020/08/11 05:38, 50.49
2020/08/11 05:58, 50.54
2020/08/11 06:18, 50.50
2020/08/11 06:38, 50.45
2020/08/11 06:58, 50.47
2020/08/11 07:18, 50.42
2020/08/11 07:38, 50.52
2020/08/11 07:58, 50.54
2020/08/11 08:18, 50.50
2020/08/11 08:38, 50.48
2020/08/11 08:58, 50.53
2020/08/11 09:18, 50.52
2020/08/11 09:38, 50.42
2020/08/11 09:58, 50.45
2020/08/11 10:18, 50.51
2020/08/11 10:38, 50.50
2020/08/11 10:58, 50.50
2020/08/11 11:18, 50.52
2020/08/11 11:38, 50.49
2020/08/11 11:58, 50.62
2020/08/11 12:18, 50.64
2020/08/11 12:38, 50.73
2020/08/11 12:58, 50.73
2020/08/11 13:18, 50.72
2020/08/11 13:38, 50.74
2020/08/11 13:58, 50.71
2020/08/11 14:18, 50.71
2020/08/11 14:38, 50.68
2020/08/11 14:58, 50.71
2020/08/11 15:18, 50.70
2020/08/11 15:38, 50.70
2020/08/11 15:58, 50.69
2020/08/11 16:18, 50.71
2020/08/11 16:38, 50.65
2020/08/11 16:58, 50.64
2020/08/11 17:18, 50.65
2020/08/11 17:38, 50.72
2020/08/11 17:58, 50.71
2020/08/11 18:18, 50.66
2020/08/11 18:38, 50.66
2020/08/11 18:58, 50.72
2020/08/11 19:18, 50.69
2020/08/11 19:38, 50.68
2020/08/11 19:58, 50.66
2020/08/11 20:18, 50.70
2020/08/11 20:38, 50.71
2020/08/11 20:58, 50.69
2020/08/11 21:18, 50.62
2020/08/11 21:38, 50.67
2020/08/11 21:58, 50.70
2020/08/11 22:18, 50.69
2020/08/11 22:38, 50.66
2020/08/11 22:58, 50.70
2020/08/11 23:18, 50.66
2020/08/11 23:38, 50.71
2020/08/11 23:58, 50.69
2020/08/12 00:18, 50.70
2020/08/12 00:38, 50.49
2020/08/12 00:58, 50.55
2020/08/12 01:18, 50.48
2020/08/12 01:38, 50.54
2020/08/12 01:58, 50.47
2020/08/12 02:18, 50.57
2020/08/12 02:38, 50.40
2020/08/12 02:58, 50.49
2020/08/12 03:18, 50.57
2020/08/12 03:38, 50.51
2020/08/12 03:58, 50.47
2020/08/12 04:18, 50.51
2020/08/12 04:38, 50.51
2020/08/12 04:58, 50.49
2020/08/12 05:18, 50.55
2020/08/12 05:38, 50.53
2020/08/12 05:58, 50.49
2020/08/12 06:18, 50.48
2020/08/12 06:38, 50.51
2020/08/12 06:58, 50.52
2020/08/12 07:18, 50.53
2020/08/12 07:38, 50.52
2020/08/12 07:58, 50.53
2020/08/12 08:18, 50.48
2020/08/12 08:38, 50.47
2020/08/12 08:58, 50.51
2020/08/12 09:18, 50.44
2020/08/12 09:38, 50.49
2020/08/12 09:58, 50.48
2020/08/12 10:18, 50.48
2020/08/12 10:38, 50.54
2020/08/12 10:58, 50.76
2020/08/12 11:18, 50.75
2020/08/12 11:38, 50.75
2020/08/12 11:58, 50.71
2020/08/12 12:18, 50.74
2020/08/12 12:38, 50.78
2020/08/12 12:58, 50.72
2020/08/12 13:18, 50.67
2020/08/12 13:38, 50.66
2020/08/12 13:58, 50.70
2020/08/12 14:18, 50.66
2020/08/12 14:38, 50.66
2020/08/12 14:58, 50.72
2020/08/12 15:18, 50.66
2020/08/12 15:38, 50.71
2020/08/12 15:58, 50.70
2020/08/12 16:18, 50.72
2020/08/12 16:38, 50.68
2020/08/12 16:58, 50.68
2020/08/12 17:18, 50.67
2020/08/12 17:38, 50.68
2020/08/12 17:58, 50.63
2020/08/12 18:18, 50.72
2020/08/12 18:38, 50.70
2020/08/12 18:58, 50.66
2020/08/12 19:18, 50.73
2020/08/12 19:38, 50.67
2020/08/12 19:58, 50.65
2020/08/12 20:18, 50.67
2020/08/12 20:38, 50.64
2020/08/12 20:58, 50.61
2020/08/12 21:18, 50.65
2020/08/12 21:38, 50.62
2020/08/12 21:58, 50.62
2020/08/12 22:18, 50.65
2020/08/12 22:38, 50.62
2020/08/12 22:58, 50.67
2020/08/12 23:18, 50.68
2020/08/12 23:38, 50.66
2020/08/12 23:58, 50.67
2020/08/13 00:18, 50.71
2020/08/13 00:38, 50.54
2020/08/13 00:58, 50.52
2020/08/13 01:18, 50.55
2020/08/13 01:38, 50.50
2020/08/13 01:58, 50.56
2020/08/13 02:18, 50.52
2020/08/13 02:38, 50.54
2020/08/13 02:58, 50.52
2020/08/13 03:18, 50.52
2020/08/13 03:38, 50.51
2020/08/13 03:58, 50.52
2020/08/13 04:18, 50.48
2020/08/13 04:38, 50.48
2020/08/13 04:58, 50.45
2020/08/13 05:18, 50.52
2020/08/13 05:38, 50.49
2020/08/13 05:58, 50.49
2020/08/13 06:18, 50.52
2020/08/13 06:38, 50.50
2020/08/13 06:58, 50.49
2020/08/13 07:18, 50.50
2020/08/13 07:38, 50.49
2020/08/13 07:58, 50.52
2020/08/13 08:18, 50.46
2020/08/13 08:38, 50.51
2020/08/13 08:58, 50.45
2020/08/13 09:18, 50.54
2020/08/13 09:38, 50.42
2020/08/13 09:58, 50.50
2020/08/13 10:18, 50.55
2020/08/13 10:38, 50.51
2020/08/13 10:58, 50.64
2020/08/13 11:18, 50.70
2020/08/13 11:38, 50.68
2020/08/13 11:58, 50.68
2020/08/13 12:18, 50.65
2020/08/13 12:38, 50.70
2020/08/13 12:58, 50.74
2020/08/13 13:18, 50.73
2020/08/13 13:38, 50.65
2020/08/13 13:58, 50.67
2020/08/13 14:18, 50.70
2020/08/13 14:38, 50.71
2020/08/13 14:58, 50.64
2020/08/13 15:18, 50.63
2020/08/13 15:38, 50.62
2020/08/13 15:58, 50.71
2020/08/13 16:18, 50.66
2020/08/13 16:38, 50.67
2020/08/13 16:58, 50.71
2020/08/13 17:18, 50.71
2020/08/13 17:38, 50.69
2020/08/13 17:58, 50.71
2020/08/13 18:18, 50.70
2020/08/13 18:38, 50.70
2020/08/13 18:58, 50.68
2020/08/13 19:18, 50.72
2020/08/13 19:38, 50.69
2020/08/13 19:58, 50.68
2020/08/13 20:18, 50.69
2020/08/13 20:38, 50.68
2020/08/13 20:58, 50.74
2020/08/13 21:18, 50.69
2020/08/13 21:38, 50.68
2020/08/13 21:58, 50.67
2020/08/13 22:18, 50.68
2020/08/13 22:38, 50.68
2020/08/13 22:58, 50.70
2020/08/13 23:18, 50.70
2020/08/13 23:38, 50.64
2020/08/13 23:58, 50.73
2020/08/14 00:18, 50.56
2020/08/14 00:38, 50.54
2020/08/14 00:58, 50.50
2020/08/14 01:18, 50.53
2020/08/14 01:38, 50.54
2020/08/14 01:58, 50.46
2020/08/14 02:18, 50.51
2020/08/14 02:38, 50.52
2020/08/14 02:58, 50.51
2020/08/14 03:18, 50.49
2020/08/14 03:38, 50.55
2020/08/14 03:58, 50.49
2020/08/14 04:18, 50.49
2020/08/14 04:38, 50.49
2020/08/14 04:58, 50.50
2020/08/14 05:18, 50.58
2020/08/14 05:38, 50.41
2020/08/14 05:58, 50.50
2020/08/14 06:18, 50.50
2020/08/14 06:38, 50.50
2020/08/14 06:58, 50.53
2020/08/14 07:18, 50.55
2020/08/14 07:38, 50.50
2020/08/14 07:58, 50.45
2020/08/14 08:18, 50.49
2020/08/14 08:38, 50.48
2020/08/14 08:58, 50.46
2020/08/14 09:18, 50.48
2020/08/14 09:38, 50.47
2020/08/14 09:58, 50.41
2020/08/14 10:18, 50.46
2020/08/14 10:38, 50.47
2020/08/14 10:58, 50.49
2020/08/14 11:18, 50.74
2020/08/14 11:38, 50.72
2020/08/14 11:58, 50.73
2020/08/14 12:18, 50.74
2020/08/14 12:38, 50.67
2020/08/14 12:58, 50.72
2020/08/14 13:18, 50.74
2020/08/14 13:38, 50.71
2020/08/14 13:58, 50.63
2020/08/14 14:18, 50.75
2020/08/14 14:38, 50.66
2020/08/14 14:58, 50.73
2020/08/14 15:18, 50.65
2020/08/14 15:38, 50.69
2020/08/14 15:58, 50.69
2020/08/14 16:18, 50.66
2020/08/14 16:38, 50.67
2020/08/14 16:58, 50.67
2020/08/14 17:18, 50.71
2020/08/14 17:38, 50.69
2020/08/14 17:58, 50.74
2020/08/14 18:18, 50.68
2020/08/14 18:38, 50.73
2020/08/14 18:58, 50.67
2020/08/14 19:18, 50.73
2020/08/14 19:38, 50.70
2020/08/14 19:58, 50.69
2020/08/14 20:18, 50.73
2020/08/14 20:38, 50.68
2020/08/14 20:58, 50.67
2020/08/14 21:18, 50.70
2020/08/14 21:38, 50.65
2020/08/14 21:58, 50.67
2020/08/14 22:18, 50.68
2020/08/14 22:38, 50.62
2020/08/14 22:58, 50.65
2020/08/14 23:18, 50.75
2020/08/14 23:38, 50.53
2020/08/14 23:58, 50.58
2020/08/15 00:18, 50.55
2020/08/15 00:38, 50.50
2020/08/15 00:58, 50.47
2020/08/15 01:18, 50.49
2020/08/15 01:38, 50.51
2020/08/15 01:58, 50.49
2020/08/15 02:18, 50.43
2020/08/15 02:38, 50.50
2020/08/15 02:58, 50.51
2020/08/15 03:18, 50.49
2020/08/15 03:38, 50.50
2020/08/15 03:58, 50.46
2020/08/15 04:18, 50.49
2020/08/15 04:38, 50.52
2020/08/15 04:58, 50.54
2020/08/15 05:18, 50.55
2020/08/15 05:38, 50.44
2020/08/15 05:58, 50.45
2020/08/15 06:18, 50.46
2020/08/15 06:38, 50.45
2020/08/15 06:58, 50.49
2020/08/15 07:18, 50.44
2020/08/15 07:38, 50.44
2020/08/15 07:58, 50.51
2020/08/15 08:18, 50.53
2020/08/15 08:38, 50.47
2020/08/15 08:58, 50.56
2020/08/15 09:18, 50.52
2020/08/15 09:38, 50.50
2020/08/15 09:58, 50.46
2020/08/15 10:18, 50.49
2020/08/15 10:38, 50.47
2020/08/15 10:58, 50.61
2020/08/15 11:18, 50.76
2020/08/15 11:38, 50.74
2020/08/15 11:58, 50.72
2020/08/15 12:18, 50.73
2020/08/15 12:38, 50.74
2020/08/15 12:58, 50.71
2020/08/15 13:18, 50.74
2020/08/15 13:38, 50.63
2020/08/15 13:58, 50.66
2020/08/15 14:18, 50.67
2020/08/15 14:38, 50.76
2020/08/15 14:58, 50.60
2020/08/15 15:18, 50.66
2020/08/15 15:38, 50.62
2020/08/15 15:58, 50.69
2020/08/15 16:18, 50.69
2020/08/15 16:38, 50.69
2020/08/15 16:58, 50.65
2020/08/15 17:18, 50.70
2020/08/15 17:38, 50.69
2020/08/15 17:58, 50.66
2020/08/15 18:18, 50.65
2020/08/15 18:38, 50.69
2020/08/15 18:58, 50.64
2020/08/15 19:18, 50.66
2020/08/15 19:38, 50.67
2020/08/15 19:58, 50.66
2020/08/15 20:18, 50.61
2020/08/15 20:38, 50.63
2020/08/15 20:58, 50.66
2020/08/15 21:18, 50.70
2020/08/15 21:38, 50.66
2020/08/15 21:58, 50.66
2020/08/15 22:18, 50.69
2020/08/15 22:38, 50.79
2020/08/15 22:58, 50.64
2020/08/15 23:18, 50.63
2020/08/15 23:38, 50.49
2020/08/15 23:58, 50.57
2020/08/16 00:18, 50.55
2020/08/16 00:38, 50.46
2020/08/16 00:58, 50.49
2020/08/16 01:18, 50.47
2020/08/16 01:38, 50.49
2020/08/16 01:58, 50.52
2020/08/16 02:18, 50.52
2020/08/16 02:38, 50.48
2020/08/16 02:58, 50.51
2020/08/16 03:18, 50.48
2020/08/16 03:38, 50.49
2020/08/16 03:58, 50.47
2020/08/16 04:18, 50.51
2020/08/16 04:38, 50.51
2020/08/16 04:58, 50.54
2020/08/16 05:18, 50.53
2020/08/16 05:38, 50.51
2020/08/16 05:58, 50.50
2020/08/16 06:18, 50.48
2020/08/16 06:38, 50.49
2020/08/16 06:58, 50.53
2020/08/16 07:18, 50.51
2020/08/16 07:38, 50.52
2020/08/16 07:58, 50.46
2020/08/16 08:18, 50.53
2020/08/16 08:38, 50.49
2020/08/16 08:58, 50.52
2020/08/16 09:18, 50.41
2020/08/16 09:38, 50.52
2020/08/16 09:58, 50.47
2020/08/16 10:18, 50.40
2020/08/16 10:38, 50.47
2020/08/16 10:58, 50.55
2020/08/16 11:18, 50.53
2020/08/16 11:38, 50.51
2020/08/16 11:58, 50.53
2020/08/16 12:18, 50.52
2020/08/16 12:38, 50.50
2020/08/16 12:58, 50.62
2020/08/16 13:18, 50.57
2020/08/16 13:38, 50.66
2020/08/16 13:58, 50.73
2020/08/16 14:18, 50.68
2020/08/16 14:38, 50.74
2020/08/16 14:58, 50.73
2020/08/16 15:18, 50.75
2020/08/16 15:38, 50.74
2020/08/16 15:58, 50.74
2020/08/16 16:18, 50.79
2020/08/16 16:38, 50.71
2020/08/16 16:58, 50.71
2020/08/16 17:18, 50.68
2020/08/16 17:38, 50.71
2020/08/16 17:58, 50.70
2020/08/16 18:18, 50.74
2020/08/16 18:38, 50.67
2020/08/16 18:58, 50.64
2020/08/16 19:18, 50.68
2020/08/16 19:38, 50.71
2020/08/16 19:58, 50.70
2020/08/16 20:18, 50.71
2020/08/16 20:38, 50.60
2020/08/16 20:58, 50.72
2020/08/16 21:18, 50.68
2020/08/16 21:38, 50.67
2020/08/16 21:58, 50.70
2020/08/16 22:18, 50.64
2020/08/16 22:38, 50.64
2020/08/16 22:58, 50.71
2020/08/16 23:18, 50.69
2020/08/16 23:38, 50.73
2020/08/16 23:58, 50.71
2020/08/17 00:18, 50.62
2020/08/17 00:38, 50.49
2020/08/17 00:58, 50.52
2020/08/17 01:18, 50.53
2020/08/17 01:38, 50.42
2020/08/17 01:58, 50.45
2020/08/17 02:18, 50.52
2020/08/17 02:38, 50.54
2020/08/17 02:58, 50.51
2020/08/17 03:18, 50.47
2020/08/17 03:38, 50.49
2020/08/17 03:58, 50.47
2020/08/17 04:18, 50.45
2020/08/17 04:38, 50.54
2020/08/17 04:58, 50.45
2020/08/17 05:18, 50.50
2020/08/17 05:38, 50.46
2020/08/17 05:58, 50.43
2020/08/17 06:18, 50.49
2020/08/17 06:38, 50.38
2020/08/17 06:58, 50.53
2020/08/17 07:18, 50.43
2020/08/17 07:38, 50.45
2020/08/17 07:58, 50.39
2020/08/17 08:18, 50.43
2020/08/17 08:38, 50.46
2020/08/17 08:58, 50.51
2020/08/17 09:18, 50.49
2020/08/17 09:38, 50.48
2020/08/17 09:58, 50.48
2020/08/17 10:18, 50.50
2020/08/17 10:38, 50.48
2020/08/17 10:58, 50.62
2020/08/17 11:18, 50.58
2020/08/17 11:38, 50.67
2020/08/17 11:58, 50.64
2020/08/17 12:18, 50.69
2020/08/17 12:38, 50.70
2020/08/17 12:58, 50.70
2020/08/17 13:18, 50.69
2020/08/17 13:38, 50.74
2020/08/17 13:58, 50.73
2020/08/17 14:18, 50.74
2020/08/17 14:38, 50.66
2020/08/17 14:58, 50.72
2020/08/17 15:18, 50.69
2020/08/17 15:38, 50.69
2020/08/17 15:58, 50.68
2020/08/17 16:18, 50.72
2020/08/17 16:38, 50.67
2020/08/17 16:58, 50.64
2020/08/17 17:18, 50.68
2020/08/17 17:38, 50.71
2020/08/17 17:58, 50.67
2020/08/17 18:18, 50.69
2020/08/17 18:38, 50.69
2020/08/17 18:58, 50.66
2020/08/17 19:18, 50.71
2020/08/17 19:38, 50.81
2020/08/17 19:58, 50.54
2020/08/17 20:18, 50.75
2020/08/17 20:38, 50.70
2020/08/17 20:58, 50.69
2020/08/17 21:18, 50.74
2020/08/17 21:38, 50.74
2020/08/17 21:58, 50.77
2020/08/17 22:18, 50.63
2020/08/17 22:38, 50.76
2020/08/17 22:58, 50.71
2020/08/17 23:18, 50.71
2020/08/17 23:38, 50.71
2020/08/17 23:58, 50.69
2020/08/18 00:18, 50.67
2020/08/18 00:38, 50.54
2020/08/18 00:58, 50.55
2020/08/18 01:18, 50.49
2020/08/18 01:38, 50.44
2020/08/18 01:58, 50.57
2020/08/18 02:18, 50.55
2020/08/18 02:38, 50.52
2020/08/18 02:58, 50.50
2020/08/18 03:18, 50.46
2020/08/18 03:38, 50.48
2020/08/18 03:58, 50.53
2020/08/18 04:18, 50.59
2020/08/18 04:38, 50.48
2020/08/18 04:58, 50.54
2020/08/18 05:18, 50.54
2020/08/18 05:38, 50.51
2020/08/18 05:58, 50.57
2020/08/18 06:18, 50.53
2020/08/18 06:38, 50.53
2020/08/18 06:58, 50.49
2020/08/18 07:18, 50.45
2020/08/18 07:38, 50.57
2020/08/18 07:58, 50.49
2020/08/18 08:18, 50.54
2020/08/18 08:38, 50.53
2020/08/18 08:58, 50.49
2020/08/18 09:18, 50.51
2020/08/18 09:38, 50.41
2020/08/18 09:58, 50.43
2020/08/18 10:18, 50.50
2020/08/18 10:38, 50.57
2020/08/18 10:58, 50.71
2020/08/18 11:18, 50.75
2020/08/18 11:38, 50.79
2020/08/18 11:58, 50.69
2020/08/18 12:18, 50.78
2020/08/18 12:38, 50.70
2020/08/18 12:58, 50.79
2020/08/18 13:18, 50.73
2020/08/18 13:38, 50.71
2020/08/18 13:58, 50.67
2020/08/18 14:18, 50.69
2020/08/18 14:38, 50.70
2020/08/18 14:58, 50.67
2020/08/18 15:18, 50.71
2020/08/18 15:38, 50.76
2020/08/18 15:58, 50.73
2020/08/18 16:18, 50.77
2020/08/18 16:38, 50.67
2020/08/18 16:58, 50.70
2020/08/18 17:18, 50.78
2020/08/18 17:38, 50.77
2020/08/18 17:58, 50.69
2020/08/18 18:18, 50.75
2020/08/18 18:38, 50.73
2020/08/18 18:58, 50.71
2020/08/18 19:18, 50.77
2020/08/18 19:38, 50.74
2020/08/18 19:58, 50.71
2020/08/18 20:18, 50.78
2020/08/18 20:38, 50.77
2020/08/18 20:58, 50.68
2020/08/18 21:18, 50.77
2020/08/18 21:38, 50.72
2020/08/18 21:58, 50.71
2020/08/18 22:18, 50.71
2020/08/18 22:38, 50.65
2020/08/18 22:58, 50.74
2020/08/18 23:18, 50.68
2020/08/18 23:38, 50.64
2020/08/18 23:58, 50.59
2020/08/19 00:18, 50.75
2020/08/19 00:38, 50.50
2020/08/19 00:58, 50.46
2020/08/19 01:18, 50.52
2020/08/19 01:38, 50.44
2020/08/19 01:58, 50.54
2020/08/19 02:18, 50.53
2020/08/19 02:38, 50.52
2020/08/19 02:58, 50.56
2020/08/19 03:18, 50.55
2020/08/19 03:38, 50.49
2020/08/19 03:58, 50.45
2020/08/19 04:18, 50.49
2020/08/19 04:38, 50.59
2020/08/19 04:58, 50.58
2020/08/19 05:18, 50.52
2020/08/19 05:38, 50.51
2020/08/19 05:58, 50.49
2020/08/19 06:18, 50.48
2020/08/19 06:38, 50.48
2020/08/19 06:58, 50.54
2020/08/19 07:18, 50.52
2020/08/19 07:38, 50.49
2020/08/19 07:58, 50.55
2020/08/19 08:18, 50.51
2020/08/19 08:38, 50.55
2020/08/19 08:58, 50.48
2020/08/19 09:18, 50.56
2020/08/19 09:38, 50.61
2020/08/19 09:58, 50.53
2020/08/19 10:18, 50.51
2020/08/19 10:38, 50.51
2020/08/19 10:58, 50.57
2020/08/19 11:18, 50.74
2020/08/19 11:38, 50.79
2020/08/19 11:58, 50.70
2020/08/19 12:18, 50.74
2020/08/19 12:38, 50.79
2020/08/19 12:58, 50.68
2020/08/19 13:18, 50.74
2020/08/19 13:38, 50.68